TimeCDT,TemperatureF,Dew PointF,Humidity,Sea Level PressureIn,VisibilityMPH,Wind Direction,Wind SpeedMPH,Gust SpeedMPH,PrecipitationIn,Events,Conditions,WindDirDegrees,DateUTC
12:15 AM,42.8,28.4,57,30.01,10.0,North,3.5,-,N/A,,Clear,10,2012-10-02 05:15:00
12:35 AM,42.8,28.4,57,30.00,10.0,Calm,Calm,-,N/A,,Clear,0,2012-10-02 05:35:00
12:56 AM,44.6,30.2,57,30.00,10.0,Calm,Calm,-,N/A,,Clear,0,2012-10-02 05:56:00
1:35 AM,42.8,28.4,57,30.00,10.0,Calm,Calm,-,N/A,,Clear,0,2012-10-02 06:35:00
1:55 AM,42.8,30.2,61,30.00,10.0,Calm,Calm,-,N/A,,Clear,0,2012-10-02 06:55:00
2:15 AM,39.2,28.4,65,29.99,10.0,Calm,Calm,-,N/A,,Clear,0,2012-10-02 07:15:00
2:35 AM,42.8,30.2,61,29.99,10.0,Calm,Calm,-,N/A,,Clear,0,2012-10-02 07:35:00
2:55 AM,41.0,28.4,61,29.99,10.0,Calm,Calm,-,N/A,,Clear,0,2012-10-02 07:55:00
3:15 AM,39.2,28.4,65,29.98,10.0,Calm,Calm,-,N/A,,Clear,0,2012-10-02 08:15:00
3:35 AM,39.2,28.4,65,29.98,10.0,Calm,Calm,-,N/A,,Clear,0,2012-10-02 08:35:00
3:56 AM,39.2,30.2,70,29.98,10.0,Calm,Calm,-,N/A,,Clear,0,2012-10-02 08:56:00
4:15 AM,39.2,30.2,70,29.98,10.0,Calm,Calm,-,N/A,,Clear,0,2012-10-02 09:15:00
4:35 AM,37.4,30.2,75,29.98,10.0,Calm,Calm,-,N/A,,Clear,0,2012-10-02 09:35:00
4:56 AM,37.4,28.4,70,29.98,10.0,Calm,Calm,-,N/A,,Clear,0,2012-10-02 09:56:00
5:35 AM,35.6,26.6,70,29.98,10.0,Calm,Calm,-,N/A,,Clear,0,2012-10-02 10:35:00
5:56 AM,35.6,28.4,75,29.98,10.0,Calm,Calm,-,N/A,,Clear,0,2012-10-02 10:56:00
6:15 AM,35.6,28.4,75,29.98,10.0,Calm,Calm,-,N/A,,Clear,0,2012-10-02 11:15:00
6:35 AM,35.6,28.4,75,29.98,10.0,Calm,Calm,-,N/A,,Clear,0,2012-10-02 11:35:00
7:15 AM,35.6,28.4,75,29.98,10.0,Calm,Calm,-,N/A,,Clear,0,2012-10-02 12:15:00
7:35 AM,35.6,28.4,75,29.98,10.0,Calm,Calm,-,N/A,,Clear,0,2012-10-02 12:35:00
7:56 AM,37.4,30.2,75,29.98,7.0,Calm,Calm,-,N/A,,Clear,0,2012-10-02 12:56:00
8:15 AM,39.2,30.2,70,29.98,10.0,Calm,Calm,-,N/A,,Clear,0,2012-10-02 13:15:00
8:35 AM,42.8,33.8,70,29.98,7.0,Calm,Calm,-,N/A,,Clear,0,2012-10-02 13:35:00
8:55 AM,46.4,35.6,66,29.97,10.0,Calm,Calm,-,N/A,,Clear,0,2012-10-02 13:55:00
9:15 AM,48.2,37.4,66,29.97,7.0,SSE,3.5,-,N/A,,Clear,150,2012-10-02 14:15:00
9:33 AM,53.6,35.6,51,29.96,7.0,SSE,5.8,-,N/A,,Clear,150,2012-10-02 14:33:00
9:55 AM,57.2,35.6,44,29.96,10.0,SSE,9.2,-,N/A,,Clear,160,2012-10-02 14:55:00
10:15 AM,60.8,35.6,39,29.96,10.0,South,4.6,-,N/A,,Clear,170,2012-10-02 15:15:00
10:36 AM,62.6,35.6,37,-9999,10.0,South,4.6,-,N/A,,Clear,190,2012-10-02 15:36:00
10:55 AM,62.6,35.6,37,29.95,10.0,SSE,9.2,-,N/A,,Clear,160,2012-10-02 15:55:00
11:15 AM,64.4,35.6,34,29.94,10.0,SSW,5.8,-,N/A,,Clear,200,2012-10-02 16:15:00
11:36 AM,66.2,32.0,28,29.94,10.0,South,5.8,-,N/A,,Clear,180,2012-10-02 16:36:00
11:55 AM,66.2,30.2,26,29.93,10.0,SSW,8.1,-,N/A,,Clear,210,2012-10-02 16:55:00
12:15 PM,68.0,28.4,23,29.93,10.0,SSW,8.1,-,N/A,,Clear,210,2012-10-02 17:15:00
12:36 PM,69.8,26.6,20,29.92,10.0,SSW,9.2,16.1,N/A,,Clear,210,2012-10-02 17:36:00
12:55 PM,69.8,26.6,20,29.91,10.0,South,5.8,-,N/A,,Clear,190,2012-10-02 17:55:00
1:15 PM,69.8,24.8,18,29.90,10.0,SSW,6.9,-,N/A,,Clear,200,2012-10-02 18:15:00
1:35 PM,71.6,24.8,17,29.89,10.0,South,6.9,-,N/A,,Clear,180,2012-10-02 18:35:00
1:55 PM,71.6,23.0,16,29.88,10.0,South,8.1,-,N/A,,Clear,170,2012-10-02 18:55:00
2:15 PM,71.6,21.2,15,29.87,10.0,SSW,9.2,-,N/A,,Clear,210,2012-10-02 19:15:00
2:35 PM,73.4,23.0,15,29.86,10.0,South,9.2,17.3,N/A,,Clear,190,2012-10-02 19:35:00
2:55 PM,73.4,23.0,15,29.85,10.0,SSW,10.4,-,N/A,,Clear,210,2012-10-02 19:55:00
3:15 PM,73.4,19.4,13,29.85,10.0,SSW,5.8,-,N/A,,Clear,200,2012-10-02 20:15:00
3:35 PM,73.4,19.4,13,29.84,10.0,SSW,6.9,16.1,N/A,,Clear,200,2012-10-02 20:35:00
3:55 PM,73.4,19.4,13,29.83,10.0,South,6.9,-,N/A,,Clear,170,2012-10-02 20:55:00
4:15 PM,75.2,19.4,12,29.82,10.0,SSW,4.6,-,N/A,,Clear,200,2012-10-02 21:15:00
4:35 PM,75.2,19.4,12,29.81,10.0,SSW,4.6,16.1,N/A,,Clear,200,2012-10-02 21:35:00
4:55 PM,73.4,19.4,13,29.81,10.0,South,6.9,-,N/A,,Clear,180,2012-10-02 21:55:00
5:15 PM,73.4,17.6,12,29.82,10.0,South,6.9,-,N/A,,Clear,180,2012-10-02 22:15:00
5:35 PM,73.4,17.6,12,29.82,10.0,SSW,5.8,-,N/A,,Clear,200,2012-10-02 22:35:00
6:15 PM,71.6,17.6,13,29.83,10.0,SSW,3.5,-,N/A,,Clear,200,2012-10-02 23:15:00
6:36 PM,69.8,19.4,15,29.83,7.0,Calm,Calm,-,N/A,,Clear,0,2012-10-02 23:36:00
6:55 PM,68.0,19.4,16,29.83,10.0,Calm,Calm,-,N/A,,Clear,0,2012-10-02 23:55:00
7:15 PM,64.4,19.4,18,29.83,10.0,Calm,Calm,-,N/A,,Clear,0,2012-10-03 00:15:00
7:35 PM,60.8,19.4,20,29.83,10.0,Calm,Calm,-,N/A,,Clear,0,2012-10-03 00:35:00
7:55 PM,57.2,19.4,23,29.83,10.0,SE,3.5,-,N/A,,Clear,140,2012-10-03 00:55:00
8:15 PM,57.2,21.2,25,29.83,10.0,SSE,3.5,-,N/A,,Clear,160,2012-10-03 01:15:00
8:36 PM,55.4,19.4,25,29.84,10.0,Calm,Calm,-,N/A,,Clear,0,2012-10-03 01:36:00
8:55 PM,57.2,19.4,23,29.85,10.0,Calm,Calm,-,N/A,,Clear,0,2012-10-03 01:55:00
9:15 PM,55.4,21.2,26,29.85,10.0,SSE,3.5,-,N/A,,Clear,160,2012-10-03 02:15:00
9:36 PM,53.6,21.2,28,29.85,10.0,SSE,3.5,-,N/A,,Clear,160,2012-10-03 02:36:00
9:55 PM,53.6,21.2,28,29.85,10.0,Calm,Calm,-,N/A,,Clear,0,2012-10-03 02:55:00
10:15 PM,51.8,23.0,33,29.85,10.0,SE,5.8,-,N/A,,Clear,130,2012-10-03 03:15:00
10:36 PM,51.8,23.0,33,29.85,10.0,SSE,4.6,-,N/A,,Clear,150,2012-10-03 03:36:00
10:55 PM,51.8,23.0,33,29.85,10.0,SSE,4.6,-,N/A,,Clear,150,2012-10-03 03:55:00
11:15 PM,51.8,24.8,35,29.86,10.0,SSE,3.5,-,N/A,,Clear,150,2012-10-03 04:15:00
11:36 PM,50.0,24.8,37,29.86,10.0,SSE,3.5,-,N/A,,Clear,150,2012-10-03 04:36:00
11:55 PM,50.0,24.8,37,29.86,10.0,SE,3.5,-,N/A,,Clear,140,2012-10-03 04:55:00